星链-30896 (STARLINK-30896 )

导读 | 星芒AI

STARLINK-30896 是 SpaceX Starlink 卫星互联网项目中的一颗低轨道卫星,属于第三代 Starlink 卫星(v1.5)。该卫星于2023年发射,旨在为全球用户提供高速、低延迟的互联网服务。它运行在约550公里高的轨道上,配备先进通信设备和星间激光链路,提升网络效率与覆盖范围。作为 Starlink 计划的一部分,该卫星有助于扩大偏远地区的网络接入,支持民用与商业应用,并增强全球通信基础设施的韧性。

基本信息
目录编号:
58353
目录名称:
STARLINK-30896
国际标识:
2023-177C
轨道中心:
EARTH
卫星名称:
星链-30896
卫星全名:
星链-30896 (STARLINK-30896 )
卫星状态:
在轨 (已飞行713 天)
发射日期:
2023-11-18 UTC
国别 :
美国 (US)
星等 :
--
轨道信息
数据来源 国际轨道数据
星历时间: 2025-10-31T03:53:12+0800
17小时前
查看轨道信息
半长轴: 6861.123km
偏心率: 0.0001571
轨道倾角: 43.002°
近地点辐角 275.440°
升交点赤经 222.189°
平近点角 84.628°
近地点: 481.91km
远地点: 484.066km
周期: 94.265分钟
每日圈数: 15.276012
详细信息
固有亮度:
5
最大亮度:
0.3
卫星平台:
Starlink v2.0 mini
覆盖范围:
全球
运营商:
太空探索技术公司
运营商所在国:
美国
制造商(研发单位):
太空探索技术公司
制造商所在国:
美国
使用方式:
暂无
卫星简介
星链(Starlink)计划是由太空探索技术公司(SpaceX)提出的一个巨型低轨卫星互联网星座项目,计划在2019年至2024年间在太空搭建由约1.2万颗卫星组成的“星链”网络,其中1584颗将部署在地球上空550千米处的近地轨道,并从2020年开始工作。该卫星仍在工作。
2D轨道图
3D轨道图
轨道高度分析图
轨道倾角分析图
轨道综合分析图
查看轨道综合分析图